World > North America > United States > Ohio

Hourly Mason, OH Regional Weather

Feedback E-mail the Weather

Quick WX

Mason, OH Weather Maps

°F °C°F °C
Mason Weather Map
UTC Time: 7/4/2022, 03:44
Your Time:

Mason, OH Regional Weather

Expires:202207040400;;643751
ASUS41 KCLE 040312
RWRCLE
OHIO REGIONAL WEATHER ROUNDUP
NATIONAL WEATHER SERVICE WILMINGTON, OH
1100 PM EDT SUN JUL 03 2022

NOTE: "FAIR" INDICATES FEW OR NO CLOUDS BELOW 12,000 FEET WITH NO
SIGNIFICANT WEATHER AND/OR OBSTRUCTIONS TO VISIBILITY.


OHZ042-051>053-060>062-070>072-077>081-040400-
  SOUTHWEST OHIO
  
CITY           SKY/WX    TMP DP  RH WIND       PRES   REMARKS
CINC-COVINGTON FAIR      78  63  59 CALM      30.13R                  
CINC-LUNKEN    FAIR      70  65  84 CALM      30.13R                  
HAMILTON       FAIR      69  61  75 CALM      30.14R                  
DAYTON         FAIR      78  55  44 SE5       30.15R                  
WRIGHT-PAT AFB FAIR      71  62  72 CALM      30.11R                  
DAYTON GENERAL FAIR      74  58  57 NE3       30.13R                  
WILMINGTON     FAIR      75  58  55 CALM      30.15R                  
$$


SKY/WX - Weather  TMP - Temperature  DP - Dew Point  RH - Humidity
WIND - Wind Direction/Speed PRES - Barometric Pressure VSB - Visibility
WCI - Wind Chill Index E13G22 Wind - East Wind 13 mph/Gusts of 22 mph

Trending Headlines

Mason Radar Loop



Mason Quick Facts


National Two Day Weather Forecast


E-mail the Mason Weather Forecast

Voice your opinion or tell us about page issues...